| time (UTC) | temp C | wind direction | speed KPH | gust KPH | rain 1hr cm | rain 24hr cm | rain mn cm | humidity % | barometer mb |
| 20260507083509 | 17 | 184 | 0.0 | 4.8 | 0.00 | 0.84 | 0.03 | 74 | 1013.8 |
| 20260507083006 | 17 | 184 | 0.0 | 4.8 | 0.00 | 0.84 | 0.03 | 76 | 1013.9 |
| 20260507082504 | 17 | 184 | 0.0 | 4.8 | 0.00 | 0.84 | 0.03 | 80 | 1013.8 |
| 20260507082003 | 17 | 150 | 0.0 | 4.8 | 0.00 | 0.84 | 0.03 | 81 | 1013.7 |
| 20260507081502 | 17 | 150 | 0.0 | 4.8 | 0.00 | 0.84 | 0.03 | 82 | 1013.8 |
| 20260507081002 | 16 | 221 | 0.0 | 1.6 | 0.00 | 0.84 | 0.03 | 84 | 1013.9 |
| 20260507080600 | 16 | 160 | 0.0 | 1.6 | 0.00 | 0.84 | 0.03 | 88 | 1013.9 |
| 20260507080058 | 16 | 159 | 0.0 | 1.6 | 0.00 | 0.84 | 0.03 | 87 | 1013.9 |
| 20260507075559 | 15 | 159 | 0.0 | 4.8 | 0.00 | 0.89 | 0.03 | 87 | 1013.9 |
| 20260507075059 | 15 | 159 | 0.0 | 4.8 | 0.00 | 0.89 | 0.03 | 88 | 1013.9 |
| 20260507074600 | 15 | 151 | 0.0 | 3.2 | 0.00 | 0.89 | 0.03 | 91 | 1013.9 |
| 20260507074053 | 15 | 151 | 0.0 | 3.2 | 0.00 | 0.89 | 0.03 | 90 | 1013.8 |
| 20260507073553 | 15 | 151 | 0.0 | 3.2 | 0.00 | 0.89 | 0.03 | 90 | 1013.7 |
| 20260507073053 | 15 | 151 | 0.0 | 3.2 | 0.00 | 0.89 | 0.03 | 91 | 1013.8 |
| 20260507072552 | 15 | 151 | 0.0 | 1.6 | 0.00 | 0.89 | 0.03 | 91 | 1013.7 |
| 20260507072055 | 15 | 151 | 0.0 | 4.8 | 0.00 | 0.89 | 0.03 | 91 | 1013.7 |
| 20260507071551 | 15 | 151 | 0.0 | 4.8 | 0.00 | 0.89 | 0.03 | 91 | 1013.6 |
| 20260507071051 | 15 | 137 | 0.0 | 4.8 | 0.00 | 0.89 | 0.03 | 92 | 1013.5 |
| 20260507070550 | 15 | 121 | 0.0 | 3.2 | 0.00 | 0.89 | 0.03 | 92 | 1013.5 |
| 20260507065548 | 15 | 121 | 0.0 | 4.8 | 0.00 | 1.75 | 0.03 | 95 | 1013.4 |
| 20260507065049 | 15 | 121 | 0.0 | 3.2 | 0.00 | 1.75 | 0.03 | 94 | 1013.4 |
| 20260507064553 | 15 | 121 | 0.0 | 1.6 | 0.00 | 1.75 | 0.03 | 96 | 1013.3 |
| 20260507064047 | 14 | 121 | 0.0 | 0.0 | 0.00 | 1.75 | 0.03 | 97 | 1013.2 |
| 20260507063545 | 14 | 121 | 0.0 | 0.0 | 0.00 | 1.75 | 0.03 | 100 | 1013.2 |
| 20260507063043 | 14 | 121 | 0.0 | 0.0 | 0.00 | 1.75 | 0.03 | 99 | 1013.3 |
| 20260507062545 | 13 | 121 | 0.0 | 0.0 | 0.00 | 1.75 | 0.03 | 99 | 1013.3 |
| 20260507062040 | 13 | 121 | 0.0 | 0.0 | 0.00 | 1.75 | 0.03 | 100 | 1013.3 |
| 20260507061538 | 13 | 121 | 0.0 | 0.0 | 0.00 | 1.75 | 0.03 | 100 | 1013.3 |
| 20260507061038 | 13 | 121 | 0.0 | 0.0 | 0.00 | 1.75 | 0.03 | 99 | 1013.3 |
| 20260507060536 | 12 | 121 | 0.0 | 0.0 | 0.00 | 1.75 | 0.03 | 100 | 1013.3 |
| 20260507060040 | 12 | 121 | 0.0 | 0.0 | 0.00 | 1.75 | 0.03 | 100 | 1013.3 |
| 20260507055534 | 12 | 121 | 0.0 | 0.0 | 0.00 | 2.29 | 0.03 | 100 | 1013.2 |
| 20260507055033 | 12 | 121 | 0.0 | 1.6 | 0.00 | 2.29 | 0.03 | 100 | 1013.2 |
| 20260507054545 | 12 | 178 | 0.0 | 0.0 | 0.00 | 2.29 | 0.03 | 100 | 1013.1 |
| 20260507054034 | 12 | 178 | 0.0 | 0.0 | 0.00 | 2.29 | 0.03 | 100 | 1013.1 |
| 20260507053530 | 11 | 178 | 0.0 | 0.0 | 0.00 | 2.29 | 0.03 | 100 | 1013.0 |
| 20260507053029 | 11 | 178 | 0.0 | 0.0 | 0.00 | 2.29 | 0.03 | 99 | 1012.9 |
| 20260507052508 | 11 | 178 | 0.0 | 0.0 | 0.00 | 2.29 | 0.03 | 99 | 1012.9 |
| 20260507052008 | 11 | 178 | 0.0 | 0.0 | 0.00 | 2.29 | 0.03 | 99 | 1012.9 |